Regional Weather Roundup
Issued by NWS

Home | Current Version | Previous Version | Text Only | Print | Product List | Glossary Off
Versions: 1 2 3 4 5 6 7 8 9 10 11 12 13 14 15 16 17 18 19 20 21 22 23 24 25 26 27 28 29 30 31 32 33 34 35 36 37 38 39 40 41 42 43 44 45 46 47 48 49 50

000
ASUS43 KOAX 190102
RWRNE

WEATHER ROUNDUP FOR NEBRASKA
NATIONAL WEATHER SERVICE OMAHA NE
700 PM CST WED JAN 18 2017

NOTES: SATELLITE DATA IS BEING USED TO AUGMENT CLOUD COVER ABOVE
       12000 FEET.
       "FAIR" INDICATES FEW OR NO CLOUDS BELOW 12,000 FEET WITH NO
       SIGNIFICANT WEATHER AND/OR OBSTRUCTIONS TO VISIBILITY.

  * THESE STATIONS DO NOT REPORT WEATHER SUCH AS RAIN...SNOW OR FOG.

NEZ001>004-019>022-054>056-190200-
NEBRASKA PANHANDLE

CITY           SKY/WX    TMP DP  RH WIND       PRES   REMARKS
SCOTTSBLUFF    CLOUDY    38  26  62 CALM      29.72S
ALLIANCE       CLOUDY    28  21  75 S12       29.70F WCI  18
CHADRON        CLOUDY    30  23  75 SW7       29.67S WCI  23
KIMBALL        CLOUDY    35  29  79 W8        29.74F WCI  28
SIDNEY         CLOUDY    32  26  78 SW10      29.74F WCI  24
$$

NEZ057>060-069>072-079>082-190200-
SOUTHWEST NEBRASKA

CITY           SKY/WX    TMP DP  RH WIND       PRES   REMARKS
NORTH PLATTE   CLEAR     32  28  85 SE6       29.78F WCI  26
IMPERIAL       CLEAR     35  29  78 S6        29.77F WCI  30
LEXINGTON      CLOUDY    42  36  79 S9        29.80F
MCCOOK         CLEAR     39  35  86 S6        29.80F WCI  35
OGALLALA       CLEAR     38  31  77 CALM      29.76F
$$

NEZ005>010-023>029-035>040-094-190200-
NORTH CENTRAL NEBRASKA

CITY           SKY/WX    TMP DP  RH WIND       PRES   REMARKS
VALENTINE      CLOUDY    42  22  44 SW13      29.69F
AINSWORTH      CLEAR     39  28  63 S12       29.71F WCI  32
BROKEN BOW     PTCLDY    34  32  92 S3        29.79F
O`NEILL        CLEAR     39  35  85 S12       29.76S WCI  31
ORD            CLOUDY    34  30  85 S3        29.80F
THEDFORD       CLOUDY    39  29  67 S6        29.75S WCI  35
$$

NEZ041-046>049-061>064-073>077-083>087-190200-
SOUTH CENTRAL NEBRASKA

CITY           SKY/WX    TMP DP  RH WIND       PRES   REMARKS
GRAND ISLAND   CLOUDY    39  38  96 S9        29.84S WCI  33
AURORA         CLEAR     40  37  90 S9        29.85S WCI  34
HASTINGS       CLEAR     43  38  82 S8        29.85F
HEBRON         CLEAR     38  34  85 CALM      29.89S
HOLDREGE       CLEAR     40  36  86 S9        29.82F WCI  33
KEARNEY *      CLEAR     37  34  87 S5        29.83S WCI  34
YORK           PTCLDY    39  37  93 S9        29.87R WCI  33
$$

NEZ011>018-030>034-042>045-190200-
NORTHEAST NEBRASKA

CITY           SKY/WX    TMP DP  RH WIND       PRES   REMARKS
NORFOLK        CLEAR     39  36  89 S7        29.84R WCI  34
ALBION         CLOUDY    38  35  89 SE8       29.83S WCI  32
BLAIR          CLEAR     44  38  79 S8        29.88S
FREMONT        CLEAR     42  36  80 CALM      29.89S
TEKAMAH        CLEAR     39  33  79 S12       29.88S WCI  32
WAYNE          CLEAR     36  35  96 S9        29.84S WCI  29
$$

NEZ050>053-065>068-078-088>093-190200-
SOUTHEAST NEBRASKA

CITY           SKY/WX    TMP DP  RH WIND       PRES   REMARKS
LINCOLN        CLEAR     40  36  86 S6        29.90R
OMAHA EPPLEY   CLEAR     44  36  73 S12       29.90S
BEATRICE       CLEAR     40  35  82 S7        29.91S
FALLS CITY     CLEAR     38  34  85 SE6       29.95S WCI  33
NEBRASKA CITY  CLEAR     40  34  78 S8        29.93S WCI  35
PLATTSMOUTH    CLEAR     44  35  70 SE13      29.90S
$$

NEZ044-045-051>053-067-190200-
OMAHA AREA

CITY           SKY/WX    TMP DP  RH WIND       PRES   REMARKS
OMAHA EPPLEY   CLEAR     44  36  73 S12       29.90S
BLAIR          CLEAR     44  38  79 S8        29.88S
FREMONT        CLEAR     42  36  80 CALM      29.89S
MILLARD        CLEAR     44  38  79 SE3       29.90S
OFFUTT AFB     CLEAR     41  41  99 SE10      29.90S
PLATTSMOUTH    CLEAR     44  35  70 SE13      29.90S
WAHOO          FAIR      38  34  84 SE5       29.88S WCI  35
$$




USA.gov is the U.S. government's official web portal to all federal, state and local government web resources and services.